Flag for Russia Weather past 2 weeks in Barnaul, Russia

Now
68 °F

Sunny.


Feels Like: 68 °F
Forecast: 45 / 78 °F
Wind: 3 mph from North

Location: Barnaul Airport

Current Time: Aug 30, 2014 at 3:44:29 PM

Latest Report: Aug 30, 2014 at 3:00 PM


Visibility: 10 mi

Pressure: 30.09 "Hg

Humidity: 33%

Dew point: 37 °F

Location of BarnaulLocation

Historic Weather in Barnaul — Graph

°F

Barnaul temperature yesterday

Maximum temperature yesterday: 57 °F (at 3:00 PM)
Minimum temperature yesterday: 37 °F (at 4:30 AM)
Average temperature yesterday: 48 °F

Past Weeks' High & Low Weather Summary

 TemperatureHumidityPressure
High88 °F (Aug 19, 4:00 PM)100% (Aug 27, 5:00 AM)30.27 "Hg (Aug 27, 5:00 AM)
Low37 °F (Aug 29, 4:30 AM)26% (Aug 24, 4:30 PM)29.56 "Hg (Aug 15, 3:00 PM)
Average64 °F61%29.95 "Hg
* Reported Aug 15 3:00 PM — Aug 30 2:30 PM, Barnaul, Weather by CustomWeather, © 2014

Note: Actual official high and low records may vary slightly from our data, if they occured in-between our weather recording intervals... More about our weather records

Advertising

Barnaul weather history for previous 24 hours

 ConditionsComfort  
Time TempWeatherWind HumidityBarometerVisibility
2:30 PM
Aug 30
66 °FSunny.1 mph37%30.12 "Hg10 mi
2:00 PM66 °FSunny.1 mph35%30.12 "Hg10 mi
1:30 PM64 °FSunny.No wind43%30.12 "Hg10 mi
1:00 PM63 °FSunny.No wind45%30.12 "Hg10 mi
12:30 PM61 °FSunny.1 mph45%30.15 "Hg10 mi
12:00 PM59 °FSunny.3 mph51%30.15 "Hg10 mi
11:30 AM59 °FSunny.3 mph55%30.15 "Hg10 mi
11:00 AM57 °FSunny.6 mph55%30.15 "Hg10 mi
10:30 AM55 °FSunny.3 mph59%30.15 "Hg10 mi
10:00 AM54 °FSunny.6 mph67%30.15 "Hg10 mi
9:30 AM50 °FSunny.6 mph76%30.15 "Hg10 mi
9:00 AM48 °FSunny.3 mph87%30.15 "Hg10 mi
8:30 AM45 °FSunny.3 mph93%30.15 "Hg10 mi
8:00 AM43 °FFog.3 mph93%30.15 "HgN/A
7:30 AM39 °FFog.3 mph100%30.15 "HgN/A
7:00 AM39 °FFog.3 mph93%30.15 "HgN/A
6:30 AM37 °FFog.6 mph100%30.15 "Hg0 mi
6:00 AM39 °FFog.6 mph93%30.15 "Hg0 mi
5:30 AM39 °FFog.6 mph93%30.15 "Hg0 mi
5:00 AM41 °FClear.6 mph87%30.15 "Hg10 mi
4:30 AM43 °FClear.3 mph87%30.12 "Hg10 mi
4:00 AM43 °FClear.3 mph93%30.15 "Hg10 mi
2:00 AM45 °FClear.3 mph87%30.15 "Hg10 mi
1:30 AM45 °FClear.3 mph87%30.15 "Hg10 mi
1:00 AM48 °FClear.6 mph76%30.15 "Hg10 mi
12:30 AM46 °FClear.3 mph82%30.15 "Hg10 mi
12:00 AM46 °FClear.6 mph82%30.15 "Hg10 mi
11:30 PM
Aug 29
48 °FClear.6 mph76%30.15 "Hg10 mi
11:00 PM48 °FClear.3 mph76%30.18 "Hg10 mi
10:30 PM50 °FClear.6 mph71%30.18 "Hg10 mi
10:00 PM50 °FClear.3 mph71%30.18 "Hg10 mi
9:30 PM52 °FClear.3 mph67%30.18 "Hg10 mi
9:00 PM52 °FSunny.3 mph67%30.18 "Hg10 mi
8:30 PM52 °FSunny.6 mph67%30.18 "Hg10 mi
8:00 PM54 °FSunny.6 mph63%30.18 "Hg10 mi
7:30 PM55 °FSunny.8 mph59%30.18 "Hg10 mi
7:00 PM55 °FSunny.10 mph59%30.18 "Hg10 mi
6:30 PM57 °FSunny.10 mph55%30.18 "Hg10 mi
6:00 PM55 °FBroken clouds.10 mph59%30.18 "HgN/A
5:30 PM57 °FBroken clouds.10 mph51%30.18 "HgN/A
5:00 PM57 °FSunny.10 mph51%30.18 "Hg10 mi
4:30 PM57 °FSunny.8 mph51%30.18 "Hg10 mi
4:00 PM57 °FSunny.10 mph51%30.18 "Hg10 mi
3:30 PM57 °FSunny.8 mph48%30.18 "Hg10 mi
3:00 PM57 °FSunny.10 mph48%30.18 "Hg10 mi
Weather by CustomWeather, © 2014

See weather overviewHow to use our weather pages